Flag for Germany Weather past 2 weeks in Hattingen, North Rhine-Westphalia, Germany

Now
68 °F

Overcast.


Feels Like: 68 °F
Forecast: 60 / 77 °F
Wind: 3 mph from Southwest

Location: Essen

Current Time: Jul 26, 2014 at 12:12:44 PM

Latest Report: Jul 26, 2014 at 12:00 PM


Visibility: 3 mi

Pressure: 29.94 "Hg

Humidity: 76%

Dew point: 60 °F

Location of HattingenLocation

Historic Weather in Hattingen — Graph

°F

Hattingen temperature yesterday

Maximum temperature yesterday: 69 °F (at 6:00 PM)
Minimum temperature yesterday: 62 °F (at 6:00 AM)
Average temperature yesterday: 65 °F

Past Weeks' High & Low Weather Summary

 TemperatureHumidityPressure
High92 °F (Jul 19, 5:00 PM)100% (Jul 26, 6:00 AM)30.19 "Hg (Jul 26, 6:00 AM)
Low56 °F (Jul 15, 6:00 AM)27% (Jul 19, 1:00 PM)29.72 "Hg (Jul 13, 7:00 PM)
Average70 °F72%29.96 "Hg
* Reported Jul 11 11:00 AM — Jul 26 11:00 AM, Hattingen, Weather by CustomWeather, © 2014

Note: Actual official high and low records may vary slightly from our data, if they occured in-between our weather recording intervals... More about our weather records

Advertising

Hattingen weather history for previous 24 hours

 ConditionsComfort  
Time TempWeatherWind HumidityBarometerVisibility
11:00 AM
Jul 26
67 °FFog.1 mph81%29.93 "Hg3 mi
10:00 AM63 °FFog.2 mph92%29.94 "Hg2 mi
9:00 AM61 °FLow clouds.1 mph97%29.93 "Hg1 mi
8:00 AM60 °FLow clouds.1 mph99%29.92 "Hg0 mi
7:00 AM60 °FLow clouds.No wind99%29.92 "Hg0 mi
6:00 AM60 °FLow clouds.2 mph100%29.92 "Hg0 mi
5:00 AM60 °FPassing clouds.2 mph99%29.91 "Hg1 mi
4:00 AM60 °FClear.1 mph97%29.92 "Hg1 mi
3:00 AM61 °FFog.2 mph96%29.92 "Hg2 mi
2:00 AM62 °FFog.2 mph96%29.93 "Hg2 mi
1:00 AM62 °FFog.2 mph93%29.92 "Hg4 mi
12:00 AM64 °FClear.3 mph88%29.93 "Hg7 mi
11:00 PM
Jul 25
65 °FPassing clouds.3 mph83%29.92 "Hg11 mi
10:00 PM66 °FClear.3 mph80%29.93 "Hg13 mi
9:00 PM67 °FSunny.5 mph77%29.91 "Hg11 mi
8:00 PM68 °FPassing clouds.3 mph77%29.91 "Hg7 mi
7:00 PM69 °FPartly sunny.5 mph71%29.91 "Hg11 mi
6:00 PM69 °FScattered clouds.3 mph68%29.91 "Hg10 mi
5:00 PM68 °FHaze.3 mph72%29.93 "Hg14 mi
4:00 PM66 °FOvercast.5 mph80%29.94 "Hg12 mi
3:00 PM64 °FDrizzle. Overcast.3 mph86%29.95 "Hg7 mi
2:00 PM64 °FOvercast.2 mph85%29.96 "Hg7 mi
1:00 PM63 °FLow clouds.3 mph85%29.97 "Hg5 mi
12:00 PM62 °FLow clouds.3 mph88%29.98 "Hg4 mi
Weather by CustomWeather, © 2014

See weather overviewHow to use our weather pages